GFSGBSN_prec_kuchsnow_240.txt.gz
Snowfall_Accumulation
0.0 0.0 0.0 0.0 0.0 0.0 0.0 0.0 0.0 0.0 0.0 0.0 0.0 0.0 0.0 0.0 0.0 0.0 0.0 0.0 0.0 0.0 0.0 0.0 0.0 0.0 0.0 0.0 0.0 0.0 0.0 0.0 0.0 0.0 0.0 0.0 0.0 0.0 0.0 0.0 0.0 0.0 0.0 0.0 0.0 0.0 0.0
0.0 0.0 0.0 0.0 0.0 0.0 0.0 0.0 0.0 0.0 0.0 0.0 0.0 0.0 0.0 0.0 0.0 0.0 0.0 0.0 0.0 0.0 0.0 0.0 0.0 0.0 0.0 0.0 0.0 0.0 0.0 0.0 0.0 0.0 0.0 0.0 0.0 0.0 0.0 0.0 0.0 0.0 0.0 0.0 0.0 0.0 0.0
0.0 0.0 0.0 0.0 0.0 0.0 0.0 0.0 0.0 0.0 0.0 0.0 0.0 0.0 0.0 0.0 0.0 0.0 0.0 0.0 0.0 0.0 0.0 0.0 0.0 0.0 0.0 0.0 0.0 0.0 0.0 0.0 0.0 0.0 0.0 0.0 0.0 0.0 0.0 0.0 0.0 0.0 0.0 0.0 0.0 0.0 0.0
0.0 0.0 0.0 0.0 0.0 0.0 0.0 0.0 0.0 0.0 0.0 0.0 0.0 0.0 0.0 0.0 0.0 0.0 0.0 0.0 0.0 0.0 0.0 0.0 0.0 0.0 0.0 0.0 0.0 0.0 0.0 0.0 0.0 0.0 0.0 0.0 0.0 0.0 0.0 0.0 0.0 0.0 0.0 0.0 0.0 0.0 0.0
0.0 0.0 0.0 0.0 0.0 0.0 0.0 0.0 0.0 0.0 0.0 0.0 0.0 0.0 0.0 0.0 0.0 0.0 0.0 0.0 0.0 0.0 0.0 0.0 0.0 0.0 0.0 0.0 0.0 0.0 0.0 0.0 0.0 0.0 0.0 0.0 0.0 0.0 0.0 0.0 0.0 0.0 0.0 0.0 0.0 0.0 0.0
0.0 0.0 0.0 0.0 0.0 0.0 0.0 0.0 0.0 0.0 0.0 0.0 0.0 0.0 0.0 0.0 0.0 0.0 0.0 0.0 0.0 0.0 0.0 0.0 0.0 0.0 0.0 0.0 0.0 0.0 0.0 0.0 0.0 0.0 0.0 0.0 0.0 0.0 0.0 0.0 0.0 0.0 0.0 0.0 0.0 0.0 0.0
0.0 0.0 0.0 0.0 0.0 0.0 0.0 0.0 0.0 0.0 0.0 0.0 0.0 0.0 0.0 0.0 0.0 0.0 0.0 0.0 0.0 0.0 0.0 0.0 0.0 0.0 0.0 0.0 0.0 0.0 0.0 0.0 0.0 0.0 0.0 0.0 0.0 0.0 0.0 0.0 0.0 0.0 0.0 0.0 0.0 0.0 0.0
0.0 0.0 0.0 0.0 0.0 0.0 0.0 0.0 0.0 0.0 0.0 0.0 0.0 0.0 0.0 0.0 0.0 0.0 0.0 0.0 0.0 0.0 0.3 0.0 0.0 0.0 0.0 0.0 0.0 0.0 0.0 0.0 0.0 0.0 0.0 0.0 0.0 0.0 0.0 0.0 0.0 0.0 0.0 0.0 0.0 0.0 0.0
0.0 0.0 0.0 0.0 0.0 0.0 0.0 0.0 0.0 0.0 0.0 0.0 0.0 0.0 0.0 0.0 0.0 0.0 0.0 0.0 0.0 0.0 1.3 0.0 0.0 0.0 0.0 0.0 0.0 0.0 0.0 0.0 0.0 0.0 0.0 0.0 0.0 0.0 0.0 0.0 0.0 0.0 0.0 0.0 0.0 0.0 0.0
0.0 0.0 0.0 0.0 0.0 0.0 0.0 0.0 0.0 0.0 0.0 0.0 0.0 0.0 0.0 0.0 0.0 0.0 0.0 0.0 0.0 0.0 3.3 0.0 0.0 0.0 0.0 0.0 0.0 0.0 0.0 0.0 0.0 0.0 0.0 0.0 0.0 0.0 0.0 0.0 0.0 0.0 0.0 0.0 0.0 0.0 0.0
0.0 0.0 0.0 0.0 0.0 0.0 0.0 0.0 0.0 0.0 0.0 0.0 0.0 0.0 0.0 0.0 0.0 0.0 0.0 0.0 0.0 0.0 47.2 0.2 0.0 0.0 0.0 0.0 0.0 0.0 0.0 0.0 0.0 0.0 0.0 0.0 0.0 0.0 0.0 0.0 0.0 0.0 0.0 0.0 0.0 0.0 0.0
0.0 0.0 0.0 0.0 0.0 0.0 0.0 0.0 0.0 0.0 0.0 0.0 0.0 0.0 0.0 0.0 0.0 0.0 0.0 0.0 0.0 22.2 61.2 0.7 0.0 0.0 0.0 0.0 0.0 0.0 0.0 0.0 0.0 0.0 0.0 0.0 0.0 0.0 0.0 0.0 0.0 0.0 0.0 0.0 0.0 0.1 0.1
0.0 0.0 0.0 0.0 0.0 0.0 0.0 0.0 0.0 0.0 0.0 0.0 0.0 0.0 0.0 0.0 0.0 0.0 0.0 0.0 35.3 73.9 0.0 0.6 0.0 0.0 0.0 0.0 0.0 0.0 0.1 0.0 0.0 0.5 0.2 0.0 0.0 0.0 0.0 0.0 0.0 0.0 0.0 3.4 3.8 2.5 0.7
0.0 0.0 0.0 0.0 0.0 0.0 0.0 0.0 0.0 0.0 0.0 0.0 0.0 0.0 0.0 0.0 0.0 0.0 0.0 5.7 86.1 6.4 2.3 0.0 0.0 0.0 0.1 0.0 0.0 0.0 0.2 0.5 0.0 0.0 0.1 1.1 0.4 0.0 0.0 0.0 0.0 0.0 0.0 1.1 3.8 1.0 0.0
0.0 0.0 0.0 0.0 0.0 0.0 0.0 0.0 0.0 0.0 0.0 0.0 0.0 0.0 0.0 0.0 0.0 0.0 2.2 83.9 39.3 0.9 0.0 0.0 0.0 0.6 0.8 0.2 0.1 0.0 1.5 2.0 1.2 0.0 2.5 2.6 1.5 0.0 0.0 0.0 0.0 0.0 0.5 0.0 1.9 0.3 1.1
0.0 0.0 0.0 0.0 0.0 0.0 0.0 0.0 0.0 0.0 0.0 0.0 0.0 0.0 0.0 0.0 0.0 0.0 20.9 48.0 14.2 0.0 0.2 0.0 1.5 0.4 1.7 0.3 0.8 0.7 0.4 1.6 1.3 0.1 0.0 1.3 6.1 0.0 0.0 0.0 0.0 0.0 0.0 3.0 4.9 27.4 13.5
0.0 0.0 0.0 0.0 0.0 0.0 0.0 0.0 0.0 0.0 0.0 0.0 0.0 3.7 0.0 0.0 0.0 0.8 58.7 14.1 5.1 0.0 0.0 1.5 1.0 2.5 0.5 0.9 2.7 3.7 2.8 0.2 2.3 0.3 0.0 1.0 3.9 0.3 0.0 0.3 0.6 0.2 0.7 1.5 0.9 7.3 15.7
0.0 0.0 0.0 0.0 0.0 0.0 0.0 0.0 0.0 0.0 0.0 0.0 0.0 31.1 0.0 0.0 18.5 25.5 29.8 9.1 0.6 0.0 0.0 1.1 0.7 0.8 1.9 1.6 1.9 3.3 5.3 2.0 0.0 0.4 2.3 1.8 5.3 6.3 0.1 0.0 0.0 0.2 4.4 8.0 40.4 36.7 23.8
0.0 0.0 0.0 0.0 0.0 0.0 0.0 0.0 0.0 0.0 0.0 0.0 8.1 12.3 0.0 0.0 52.6 32.6 8.3 9.4 3.1 1.9 1.2 2.0 1.3 0.4 0.6 1.2 6.0 2.3 2.1 0.0 0.7 2.7 4.6 2.7 8.6 13.4 3.1 0.8 0.0 5.1 6.7 6.5 10.3 23.6 26.2
0.0 0.0 0.0 0.0 0.0 0.0 0.0 0.0 0.0 0.0 0.0 0.0 13.5 51.3 8.6 0.0 4.0 6.1 8.5 10.6 7.5 0.0 0.9 0.0 2.0 0.0 2.3 4.7 0.8 4.4 2.8 0.9 2.5 2.5 0.2 1.3 4.6 6.1 11.5 3.7 1.7 4.4 2.3 3.3 12.1 28.5 16.9
0.0 0.0 0.0 0.0 0.0 0.0 0.0 0.0 0.0 0.0 0.0 0.0 23.6 30.5 0.0 33.2 14.8 5.6 6.5 5.0 5.4 5.9 1.2 0.0 2.3 0.8 2.1 10.0 4.6 2.9 2.0 3.9 3.2 0.0 0.3 6.0 10.9 4.5 3.0 0.8 0.8 3.1 3.3 2.4 6.8 3.8 13.0
0.0 0.0 0.0 0.0 0.0 0.0 0.0 0.0 0.0 0.0 0.0 0.0 53.7 14.3 1.5 3.1 1.6 8.9 6.1 10.2 4.2 3.4 7.4 5.2 5.6 1.6 1.1 5.0 1.9 6.7 2.7 1.4 5.1 0.1 3.0 4.7 13.7 7.4 13.0 1.2 2.8 6.0 4.6 2.4 5.2 4.1 4.5
0.0 0.0 0.0 0.0 0.0 0.0 0.0 0.0 0.0 0.0 0.0 6.8 3.5 0.0 4.1 3.3 2.0 6.2 7.3 6.0 6.3 7.0 1.5 0.6 2.4 3.6 4.0 1.8 0.1 0.1 0.0 0.0 0.0 2.2 3.5 9.3 19.0 19.2 21.9 3.1 4.4 16.2 8.2 5.7 4.5 1.8 1.4
0.0 0.0 0.0 0.0 0.0 0.0 0.0 0.0 0.0 0.0 0.0 0.0 0.0 0.0 11.3 19.9 4.8 3.4 1.1 0.3 3.3 4.3 14.9 1.7 0.6 2.4 0.0 0.0 0.0 0.0 0.0 0.6 0.0 1.0 1.2 11.0 13.7 18.5 25.9 8.3 32.6 6.8 2.5 1.7 0.8 0.6 0.3
0.0 0.0 0.0 0.0 0.0 0.0 0.0 0.0 0.0 0.0 0.0 0.0 0.0 0.0 8.3 20.6 1.7 3.1 2.0 2.3 0.7 1.7 5.2 6.1 2.1 0.1 0.0 0.0 8.2 18.9 17.8 13.5 9.2 4.6 3.0 3.1 7.5 24.7 28.2 17.1 6.4 1.8 0.3 0.6 3.6 2.7 0.3
0.0 0.0 0.0 0.0 0.0 0.0 0.0 0.0 0.0 0.0 0.0 0.0 0.0 0.0 0.8 21.2 6.0 0.1 2.0 0.4 2.6 5.2 5.0 3.7 0.0 0.0 0.0 4.3 18.5 34.1 22.5 10.2 8.7 4.6 1.7 2.4 3.5 15.7 26.8 26.2 14.7 0.2 0.0 0.0 0.0 9.9 0.5
0.0 0.0 0.0 0.0 0.0 0.0 0.0 0.0 0.0 0.0 0.0 0.0 0.0 0.0 0.2 25.1 0.7 0.0 2.3 3.0 0.7 1.6 5.3 1.6 1.2 3.1 0.0 15.1 34.1 28.2 15.3 1.8 5.3 2.4 7.8 10.9 18.9 32.3 22.5 22.5 2.8 0.5 0.1 0.0 9.5 8.8 2.4
0.0 0.0 0.0 0.0 0.0 0.0 0.0 0.0 0.0 0.0 0.0 0.0 0.0 0.0 0.0 22.3 1.6 0.0 0.0 0.0 0.6 0.7 7.5 2.3 6.4 4.1 9.4 19.0 17.1 14.8 17.4 8.9 6.1 1.3 1.6 4.4 19.2 21.8 18.5 31.1 15.0 0.0 0.1 3.8 2.6 2.6 4.1
0.0 0.0 0.0 0.0 0.0 0.0 0.0 0.0 0.0 0.0 0.0 0.0 0.3 0.0 0.0 3.6 4.5 0.0 0.0 0.0 0.0 0.0 0.5 1.2 2.7 4.4 7.1 13.4 10.7 7.6 10.3 5.4 8.1 12.9 0.5 5.9 4.0 8.5 10.4 7.3 1.8 0.6 1.2 1.5 0.7 2.9 3.9

GFSGBSN_prec_kuchsnow_246.txt.gz
Snowfall_Accumulation
0.0 0.0 0.0 0.0 0.0 0.0 0.0 0.0 0.0 0.0 0.0 0.0 0.0 0.0 0.0 0.0 0.0 0.0 0.0 0.0 0.0 0.0 0.0 0.0 0.0 0.0 0.0 0.0 0.0 0.0 0.0 0.0 0.0 0.0 0.0 0.0 0.0 0.0 0.0 0.0 0.0 0.0 0.0 0.0 0.0 0.0 0.0
0.0 0.0 0.0 0.0 0.0 0.0 0.0 0.0 0.0 0.0 0.0 0.0 0.0 0.0 0.0 0.0 0.0 0.0 0.0 0.0 0.0 0.0 0.0 0.0 0.0 0.0 0.0 0.0 0.0 0.0 0.0 0.0 0.0 0.0 0.0 0.0 0.0 0.0 0.0 0.0 0.0 0.0 0.0 0.0 0.0 0.0 0.0
0.0 0.0 0.0 0.0 0.0 0.0 0.0 0.0 0.0 0.0 0.0 0.0 0.0 0.0 0.0 0.0 0.0 0.0 0.0 0.0 0.0 0.0 0.0 0.0 0.0 0.0 0.0 0.0 0.0 0.0 0.0 0.0 0.0 0.0 0.0 0.0 0.0 0.0 0.0 0.0 0.0 0.0 0.0 0.0 0.0 0.0 0.0
0.0 0.0 0.0 0.0 0.0 0.0 0.0 0.0 0.0 0.0 0.0 0.0 0.0 0.0 0.0 0.0 0.0 0.0 0.0 0.0 0.0 0.0 0.0 0.0 0.0 0.0 0.0 0.0 0.0 0.0 0.0 0.0 0.0 0.0 0.0 0.0 0.0 0.0 0.0 0.0 0.0 0.0 0.0 0.0 0.0 0.0 0.0
0.0 0.0 0.0 0.0 0.0 0.0 0.0 0.0 0.0 0.0 0.0 0.0 0.0 0.0 0.0 0.0 0.0 0.0 0.0 0.0 0.0 0.0 0.0 0.0 0.0 0.0 0.0 0.0 0.0 0.0 0.0 0.0 0.0 0.0 0.0 0.0 0.0 0.0 0.0 0.0 0.0 0.0 0.0 0.0 0.0 0.0 0.0
0.0 0.0 0.0 0.0 0.0 0.0 0.0 0.0 0.0 0.0 0.0 0.0 0.0 0.0 0.0 0.0 0.0 0.0 0.0 0.0 0.0 0.0 0.0 0.0 0.0 0.0 0.0 0.0 0.0 0.0 0.0 0.0 0.0 0.0 0.0 0.0 0.0 0.0 0.0 0.0 0.1 0.0 0.0 0.0 0.0 0.0 0.0
0.0 0.0 0.0 0.0 0.0 0.0 0.0 0.0 0.0 0.0 0.0 0.0 0.0 0.0 0.0 0.0 0.0 0.0 0.0 0.0 0.0 0.0 0.0 0.0 0.0 0.0 0.0 0.0 0.0 0.0 0.0 0.0 0.0 0.0 0.0 0.0 0.0 0.0 0.0 0.0 0.0 0.0 0.0 0.0 0.0 0.0 0.0
0.0 0.0 0.0 0.0 0.0 0.0 0.0 0.0 0.0 0.0 0.0 0.0 0.0 0.0 0.0 0.0 0.0 0.0 0.0 0.0 0.0 0.0 0.3 0.0 0.0 0.0 0.0 0.0 0.0 0.0 0.0 0.0 0.0 0.0 0.0 0.0 0.0 0.0 0.0 0.0 0.0 0.0 0.0 0.0 0.0 0.0 0.0
0.0 0.0 0.0 0.0 0.0 0.0 0.0 0.0 0.0 0.0 0.0 0.0 0.0 0.0 0.0 0.0 0.0 0.0 0.0 0.0 0.0 0.0 1.3 0.0 0.0 0.0 0.0 0.0 0.0 0.0 0.0 0.0 0.0 0.0 0.0 0.0 0.0 0.0 0.0 0.0 0.0 0.0 0.0 0.0 0.0 0.0 0.0
0.0 0.0 0.0 0.0 0.0 0.0 0.0 0.0 0.0 0.0 0.0 0.0 0.0 0.0 0.0 0.0 0.0 0.0 0.0 0.0 0.0 0.0 3.3 0.0 0.0 0.0 0.0 0.0 0.0 0.0 0.0 0.0 0.0 0.0 0.0 0.0 0.0 0.0 0.0 0.0 0.0 0.0 0.0 0.0 0.0 0.0 0.0
0.0 0.0 0.0 0.0 0.0 0.0 0.0 0.0 0.0 0.0 0.0 0.0 0.0 0.0 0.0 0.0 0.0 0.0 0.0 0.0 0.0 0.0 47.2 0.2 0.0 0.0 0.0 0.0 0.0 0.0 0.0 0.0 0.0 0.0 0.0 0.1 0.0 0.0 0.1 0.0 0.0 0.0 0.0 0.0 0.0 0.0 0.0
0.0 0.0 0.0 0.0 0.0 0.0 0.0 0.0 0.0 0.0 0.0 0.0 0.0 0.0 0.0 0.0 0.0 0.0 0.0 0.0 0.0 22.2 61.2 0.7 0.0 0.0 0.0 0.0 0.0 0.0 0.0 0.0 0.0 0.0 0.0 0.0 0.0 0.0 0.2 0.0 0.0 0.0 0.0 0.0 0.0 0.1 1.2
0.0 0.0 0.0 0.0 0.0 0.0 0.0 0.0 0.0 0.0 0.0 0.0 0.0 0.0 0.0 0.0 0.0 0.0 0.0 0.0 35.3 73.9 0.0 0.6 0.0 0.0 0.0 0.0 0.0 0.0 0.1 0.0 0.0 0.5 0.2 0.0 0.0 0.0 0.0 0.2 0.0 0.0 0.0 3.8 3.8 3.8 2.9
0.0 0.0 0.0 0.0 0.0 0.0 0.0 0.0 0.0 0.0 0.0 0.0 0.0 0.0 0.0 0.0 0.0 0.0 0.0 5.7 86.1 6.4 2.3 0.0 0.0 0.0 0.1 0.0 0.0 0.0 0.2 0.5 0.0 0.0 0.1 1.1 1.6 0.3 0.0 0.3 0.0 0.0 0.0 1.8 4.7 1.6 0.1
0.0 0.0 0.0 0.0 0.0 0.0 0.0 0.0 0.0 0.0 0.0 0.0 0.0 0.0 0.0 0.0 0.0 0.0 2.2 83.9 39.3 0.9 0.0 0.0 0.0 0.6 0.8 0.2 0.1 0.0 1.5 2.0 1.2 0.0 2.5 3.2 1.5 0.0 0.0 0.0 0.0 0.1 0.9 0.0 1.9 0.3 1.1
0.0 0.0 0.0 0.0 0.0 0.0 0.0 0.0 0.0 0.0 0.0 0.0 0.0 0.0 0.0 0.0 0.0 0.0 20.9 48.0 14.2 0.0 0.2 0.0 1.5 0.4 1.7 0.3 0.8 0.7 0.4 1.6 1.3 0.1 0.0 1.3 6.1 0.0 0.0 0.0 0.0 0.2 0.0 3.7 5.3 29.6 14.3
0.0 0.0 0.0 0.0 0.0 0.0 0.0 0.0 0.0 0.0 0.0 0.0 0.0 3.7 0.0 0.0 0.0 0.8 58.7 14.1 5.1 0.0 0.0 1.5 1.0 2.5 0.5 0.9 2.7 3.7 2.8 0.2 2.3 0.3 0.0 1.0 3.9 0.3 0.0 0.6 1.4 0.2 1.3 1.7 2.1 8.3 18.6
0.0 0.0 0.0 0.0 0.0 0.0 0.0 0.0 0.0 0.0 0.0 0.0 0.0 31.1 0.0 0.0 18.5 25.5 29.8 9.1 0.6 0.0 0.0 1.1 0.7 0.8 1.9 1.6 1.9 3.3 5.3 2.0 0.0 0.4 2.3 1.8 5.3 6.3 0.4 0.0 0.0 0.2 5.0 8.4 42.4 37.4 23.8
0.0 0.0 0.0 0.0 0.0 0.0 0.0 0.0 0.0 0.0 0.0 0.0 8.1 12.3 0.0 0.0 52.6 32.6 8.3 9.4 3.1 1.9 1.2 2.0 1.3 0.4 0.6 1.2 6.0 2.3 2.1 0.0 0.7 2.7 4.6 2.7 8.6 13.4 3.6 1.0 0.0 5.1 6.7 6.5 10.3 23.6 27.1
0.0 0.0 0.0 0.0 0.0 0.0 0.0 0.0 0.0 0.0 0.0 0.0 13.5 51.3 8.6 0.0 4.0 6.1 8.5 10.6 7.5 0.0 0.9 0.0 2.0 0.0 2.3 4.7 0.8 4.4 2.8 0.9 2.5 2.5 0.2 1.3 4.6 6.1 12.0 4.1 1.7 4.4 2.3 3.3 12.1 28.5 16.9
0.0 0.0 0.0 0.0 0.0 0.0 0.0 0.0 0.0 0.0 0.0 0.0 23.6 30.5 0.0 33.2 14.8 5.6 6.5 5.0 5.4 5.9 1.2 0.0 2.3 0.8 2.1 10.0 4.6 2.9 2.0 3.9 3.2 0.0 0.3 6.0 10.9 4.5 3.0 0.8 0.8 3.1 3.3 2.4 6.8 3.8 13.0
0.0 0.0 0.0 0.0 0.0 0.0 0.0 0.0 0.0 0.0 0.0 0.0 53.7 14.3 1.5 3.1 1.6 8.9 6.1 10.2 4.2 3.4 7.4 5.2 5.6 1.6 1.1 5.0 1.9 6.7 2.7 1.4 5.1 0.1 3.0 4.7 13.7 7.4 13.0 1.2 2.8 6.0 4.6 2.4 5.2 4.1 4.5
0.0 0.0 0.0 0.0 0.0 0.0 0.0 0.0 0.0 0.0 0.0 6.8 3.5 0.0 4.1 3.3 2.0 6.2 7.3 6.0 6.3 7.0 1.5 0.6 2.4 3.6 4.0 1.8 0.1 0.1 0.0 0.0 0.0 2.2 3.5 9.3 19.0 19.2 21.9 3.1 4.4 16.2 8.2 5.7 4.5 1.8 1.4
0.0 0.0 0.0 0.0 0.0 0.0 0.0 0.0 0.0 0.0 0.0 0.0 0.0 0.0 11.3 19.9 4.8 3.4 1.1 0.3 3.3 4.3 14.9 1.7 0.6 2.4 0.0 0.0 0.0 0.0 0.0 0.6 0.0 1.0 1.2 11.0 13.7 18.5 25.9 8.3 32.6 6.8 2.5 1.7 0.8 0.6 0.3
0.0 0.0 0.0 0.0 0.0 0.0 0.0 0.0 0.0 0.0 0.0 0.0 0.0 0.0 8.3 20.6 1.7 3.1 2.0 2.3 0.7 1.7 5.2 6.1 2.1 0.1 0.0 0.0 8.2 18.9 17.8 13.5 9.2 4.6 3.0 3.1 7.5 24.7 28.2 17.1 6.4 1.8 0.3 0.6 3.6 2.7 0.3
0.0 0.0 0.0 0.0 0.0 0.0 0.0 0.0 0.0 0.0 0.0 0.0 0.0 0.0 0.8 21.2 6.0 0.1 2.0 0.4 2.6 5.2 5.0 3.7 0.0 0.0 0.0 4.3 18.5 34.1 22.5 10.2 8.7 4.6 1.7 2.4 3.5 15.7 26.8 26.2 15.0 0.2 0.0 0.0 0.0 9.9 0.5
0.0 0.0 0.0 0.0 0.0 0.0 0.0 0.0 0.0 0.0 0.0 0.0 0.0 0.0 0.2 25.1 0.7 0.0 2.3 3.0 0.7 1.6 5.3 1.6 1.2 3.1 0.0 15.1 34.1 28.2 15.3 1.8 5.3 2.4 7.8 10.9 18.9 32.3 22.5 22.5 2.8 0.5 0.1 0.0 9.7 8.8 2.4
0.0 0.0 0.0 0.0 0.0 0.0 0.0 0.0 0.0 0.0 0.0 0.0 0.0 0.0 0.0 22.3 1.6 0.0 0.0 0.0 0.6 0.7 7.5 2.3 6.4 4.1 9.4 19.0 17.1 14.8 17.4 8.9 6.1 1.3 1.6 4.4 19.2 21.8 18.5 31.1 15.0 0.0 0.1 3.8 2.6 2.6 4.1
0.0 0.0 0.0 0.0 0.0 0.0 0.0 0.0 0.0 0.0 0.0 0.0 0.3 0.0 0.0 3.6 4.5 0.0 0.0 0.0 0.0 0.0 0.5 1.2 2.7 4.4 7.1 13.4 10.8 7.6 10.3 5.4 8.1 12.9 0.5 5.9 4.0 8.5 10.4 7.3 1.8 0.6 1.2 1.5 0.7 2.9 3.9

GFSGBSN_prec_kuchsnow_249.txt.gz
Snowfall_Accumulation
0.0 0.0 0.0 0.0 0.0 0.0 0.0 0.0 0.0 0.0 0.0 0.0 0.0 0.0 0.0 0.0 0.0 0.0 0.0 0.0 0.0 0.0 0.0 0.0 0.0 0.0 0.0 0.0 0.0 0.0 0.0 0.0 0.0 0.0 0.0 0.0 0.0 0.0 0.0 0.0 0.0 0.0 0.0 0.0 0.0 0.0 0.0
0.0 0.0 0.0 0.0 0.0 0.0 0.0 0.0 0.0 0.0 0.0 0.0 0.0 0.0 0.0 0.0 0.0 0.0 0.0 0.0 0.0 0.0 0.0 0.0 0.0 0.0 0.0 0.0 0.0 0.0 0.0 0.0 0.0 0.0 0.0 0.0 0.0 0.0 0.0 0.0 0.0 0.0 0.0 0.0 0.0 0.0 0.0
0.0 0.0 0.0 0.0 0.0 0.0 0.0 0.0 0.0 0.0 0.0 0.0 0.0 0.0 0.0 0.0 0.0 0.0 0.0 0.0 0.0 0.0 0.0 0.0 0.0 0.0 0.0 0.0 0.0 0.0 0.0 0.0 0.0 0.0 0.0 0.0 0.0 0.0 0.0 0.0 0.0 0.0 0.0 0.0 0.0 0.0 0.0
0.0 0.0 0.0 0.0 0.0 0.0 0.0 0.0 0.0 0.0 0.0 0.0 0.0 0.0 0.0 0.0 0.0 0.0 0.0 0.0 0.0 0.0 0.0 0.0 0.0 0.0 0.0 0.0 0.0 0.0 0.0 0.0 0.0 0.0 0.0 0.0 0.0 0.0 0.0 0.0 0.0 0.0 0.0 0.0 0.0 0.0 0.0
0.0 0.0 0.0 0.0 0.0 0.0 0.0 0.0 0.0 0.0 0.0 0.0 0.0 0.0 0.0 0.0 0.0 0.0 0.0 0.0 0.0 0.0 0.0 0.0 0.0 0.0 0.0 0.0 0.0 0.0 0.0 0.0 0.0 0.0 0.0 0.0 0.0 0.0 0.0 0.0 0.0 0.0 0.0 0.0 0.0 0.0 0.0
0.0 0.0 0.0 0.0 0.0 0.0 0.0 0.0 0.0 0.0 0.0 0.0 0.0 0.0 0.0 0.0 0.0 0.0 0.0 0.0 0.0 0.0 0.0 0.0 0.0 0.0 0.0 0.0 0.0 0.0 0.0 0.0 0.0 0.0 0.0 0.0 0.0 0.0 0.0 0.0 0.1 0.0 0.0 0.0 0.0 0.0 0.0
0.0 0.0 0.0 0.0 0.0 0.0 0.0 0.0 0.0 0.0 0.0 0.0 0.0 0.0 0.0 0.0 0.0 0.0 0.0 0.0 0.0 0.0 0.0 0.0 0.0 0.0 0.0 0.0 0.0 0.0 0.0 0.0 0.0 0.0 0.0 0.0 0.0 0.0 0.0 0.0 0.0 0.0 0.0 0.0 0.0 0.0 0.0
0.0 0.0 0.0 0.0 0.0 0.0 0.0 0.0 0.0 0.0 0.0 0.0 0.0 0.0 0.0 0.0 0.0 0.0 0.0 0.0 0.0 0.0 0.3 0.0 0.0 0.0 0.0 0.0 0.0 0.0 0.0 0.0 0.0 0.0 0.0 0.0 0.0 0.0 0.0 0.0 0.0 0.0 0.0 0.0 0.0 0.0 0.0
0.0 0.0 0.0 0.0 0.0 0.0 0.0 0.0 0.0 0.0 0.0 0.0 0.0 0.0 0.0 0.0 0.0 0.0 0.0 0.0 0.0 0.0 1.3 0.0 0.0 0.0 0.0 0.0 0.0 0.0 0.0 0.0 0.0 0.0 0.0 0.0 0.0 0.0 0.0 0.0 0.0 0.0 0.1 0.0 0.0 0.0 0.0
0.0 0.0 0.0 0.0 0.0 0.0 0.0 0.0 0.0 0.0 0.0 0.0 0.0 0.0 0.0 0.0 0.0 0.0 0.0 0.0 0.0 0.0 3.3 0.0 0.0 0.0 0.0 0.0 0.0 0.0 0.0 0.0 0.0 0.0 0.0 0.0 0.0 0.0 0.0 0.0 0.0 0.0 0.0 0.0 0.0 0.0 0.3
0.0 0.0 0.0 0.0 0.0 0.0 0.0 0.0 0.0 0.0 0.0 0.0 0.0 0.0 0.0 0.0 0.0 0.0 0.0 0.0 0.0 0.0 47.2 0.2 0.0 0.0 0.0 0.0 0.0 0.0 0.0 0.0 0.0 0.0 0.0 0.1 0.0 0.0 0.3 0.1 0.0 0.0 0.0 0.0 0.0 0.0 0.0
0.0 0.0 0.0 0.0 0.0 0.0 0.0 0.0 0.0 0.0 0.0 0.0 0.0 0.0 0.0 0.0 0.0 0.0 0.0 0.0 0.0 22.2 61.2 0.7 0.0 0.0 0.0 0.0 0.0 0.0 0.0 0.0 0.0 0.0 0.0 0.0 0.0 0.0 0.2 0.0 0.0 0.0 0.0 0.0 0.0 0.1 2.2
0.0 0.0 0.0 0.0 0.0 0.0 0.0 0.0 0.0 0.0 0.0 0.0 0.0 0.0 0.0 0.0 0.0 0.0 0.0 0.0 35.3 73.9 0.0 0.6 0.0 0.0 0.0 0.0 0.0 0.0 0.1 0.0 0.0 0.5 0.2 0.0 0.0 0.0 0.0 0.2 0.0 0.1 0.1 3.8 3.8 4.3 3.3
0.0 0.0 0.0 0.0 0.0 0.0 0.0 0.0 0.0 0.0 0.0 0.0 0.0 0.0 0.0 0.0 0.0 0.0 0.0 5.7 86.1 6.4 2.3 0.0 0.0 0.0 0.1 0.0 0.0 0.0 0.2 0.5 0.0 0.0 0.1 1.1 1.6 0.3 0.0 0.8 0.0 0.0 0.0 1.8 4.7 1.6 0.1
0.0 0.0 0.0 0.0 0.0 0.0 0.0 0.0 0.0 0.0 0.0 0.0 0.0 0.0 0.0 0.0 0.0 0.0 2.2 83.9 39.3 0.9 0.0 0.0 0.0 0.6 0.8 0.2 0.1 0.0 1.5 2.0 1.2 0.0 2.5 3.2 1.5 0.0 0.1 0.0 0.0 0.2 1.5 0.0 2.0 0.3 1.1
0.0 0.0 0.0 0.0 0.0 0.0 0.0 0.0 0.0 0.0 0.0 0.0 0.0 0.0 0.0 0.0 0.0 0.0 20.9 48.0 14.2 0.0 0.2 0.0 1.5 0.4 1.7 0.3 0.8 0.7 0.4 1.6 1.3 0.1 0.0 1.3 6.1 0.0 0.0 0.0 0.0 0.2 0.0 4.7 5.3 29.6 14.9
0.0 0.0 0.0 0.0 0.0 0.0 0.0 0.0 0.0 0.0 0.0 0.0 0.0 3.7 0.0 0.0 0.0 0.8 58.7 14.1 5.1 0.0 0.0 1.5 1.0 2.5 0.5 0.9 2.7 3.7 2.8 0.2 2.3 0.3 0.0 1.0 3.9 0.3 0.0 0.6 1.4 0.2 1.3 3.7 3.4 8.7 19.1
0.0 0.0 0.0 0.0 0.0 0.0 0.0 0.0 0.0 0.0 0.0 0.0 0.0 31.1 0.0 0.0 18.5 25.5 29.8 9.1 0.6 0.0 0.0 1.1 0.7 0.8 1.9 1.6 1.9 3.3 5.3 2.0 0.0 0.4 2.3 1.8 5.3 6.3 0.4 0.0 0.0 0.2 5.0 8.4 45.2 39.4 23.8
0.0 0.0 0.0 0.0 0.0 0.0 0.0 0.0 0.0 0.0 0.0 0.0 8.1 12.3 0.0 0.0 52.6 32.6 8.3 9.4 3.1 1.9 1.2 2.0 1.3 0.4 0.6 1.2 6.0 2.3 2.1 0.0 0.7 2.7 4.6 2.7 8.6 13.4 3.6 1.0 0.0 5.1 6.7 6.5 10.3 24.0 27.4
0.0 0.0 0.0 0.0 0.0 0.0 0.0 0.0 0.0 0.0 0.0 0.0 13.5 51.3 8.6 0.0 4.0 6.1 8.5 10.6 7.5 0.0 0.9 0.0 2.0 0.0 2.3 4.7 0.8 4.4 2.8 0.9 2.5 2.5 0.2 1.3 4.6 6.1 12.0 4.1 1.7 4.4 2.3 3.3 12.1 28.5 16.9
0.0 0.0 0.0 0.0 0.0 0.0 0.0 0.0 0.0 0.0 0.0 0.0 23.6 30.5 0.0 33.2 14.8 5.6 6.5 5.0 5.4 5.9 1.2 0.0 2.3 0.8 2.1 10.0 4.6 2.9 2.0 3.9 3.2 0.0 0.3 6.0 10.9 4.5 3.0 0.8 0.8 3.1 3.3 2.4 6.8 3.8 13.0
0.0 0.0 0.0 0.0 0.0 0.0 0.0 0.0 0.0 0.0 0.0 0.0 53.7 14.3 1.5 3.1 1.6 8.9 6.1 10.2 4.2 3.4 7.4 5.2 5.6 1.6 1.1 5.0 1.9 6.7 2.7 1.4 5.1 0.1 3.0 4.7 13.7 7.4 13.0 1.2 2.8 6.0 4.6 2.4 5.2 4.1 4.5
0.0 0.0 0.0 0.0 0.0 0.0 0.0 0.0 0.0 0.0 0.0 6.8 3.5 0.0 4.1 3.3 2.0 6.2 7.3 6.0 6.3 7.0 1.5 0.6 2.4 3.6 4.0 1.8 0.1 0.1 0.0 0.0 0.0 2.2 3.5 9.3 19.0 19.2 21.9 3.1 4.4 16.2 8.2 5.7 4.5 1.8 1.4
0.0 0.0 0.0 0.0 0.0 0.0 0.0 0.0 0.0 0.0 0.0 0.0 0.0 0.0 11.3 19.9 4.8 3.4 1.1 0.3 3.3 4.3 14.9 1.7 0.6 2.4 0.0 0.0 0.0 0.0 0.0 0.6 0.0 1.0 1.2 11.0 13.7 18.5 25.9 8.3 32.6 6.8 2.5 1.7 0.8 0.6 0.3
0.0 0.0 0.0 0.0 0.0 0.0 0.0 0.0 0.0 0.0 0.0 0.0 0.0 0.0 8.3 20.6 1.7 3.1 2.0 2.3 0.7 1.7 5.2 6.1 2.1 0.1 0.0 0.0 8.2 18.9 17.8 13.5 9.2 4.6 3.0 3.1 7.5 24.7 28.2 17.1 6.4 1.8 0.3 0.6 3.6 2.7 0.3
0.0 0.0 0.0 0.0 0.0 0.0 0.0 0.0 0.0 0.0 0.0 0.0 0.0 0.0 0.8 21.2 6.0 0.1 2.0 0.4 2.6 5.2 5.0 3.7 0.0 0.0 0.0 4.3 18.5 34.1 22.5 10.2 8.7 4.6 1.7 2.4 3.5 15.7 26.8 26.2 15.0 0.2 0.0 0.0 0.0 9.9 0.5
0.0 0.0 0.0 0.0 0.0 0.0 0.0 0.0 0.0 0.0 0.0 0.0 0.0 0.0 0.2 25.1 0.7 0.0 2.3 3.0 0.7 1.6 5.3 1.6 1.2 3.1 0.0 15.1 34.1 28.2 15.3 1.8 5.3 2.4 7.8 10.9 18.9 32.3 22.5 22.5 2.8 0.5 0.1 0.0 9.7 8.8 2.4
0.0 0.0 0.0 0.0 0.0 0.0 0.0 0.0 0.0 0.0 0.0 0.0 0.0 0.0 0.0 22.3 1.6 0.0 0.0 0.0 0.6 0.7 7.5 2.3 6.4 4.1 9.4 19.0 17.1 14.8 17.4 8.9 6.1 1.3 1.6 4.4 19.2 21.8 18.5 31.1 15.0 0.0 0.1 3.8 2.6 2.6 4.1
0.0 0.0 0.0 0.0 0.0 0.0 0.0 0.0 0.0 0.0 0.0 0.0 0.3 0.0 0.0 3.6 4.5 0.0 0.0 0.0 0.0 0.0 0.5 1.2 2.7 4.4 7.1 13.4 10.8 7.6 10.3 5.4 8.1 12.9 0.5 5.9 4.0 8.5 10.4 7.3 1.8 0.6 1.2 1.5 0.7 2.9 3.9

GFSGBSN_prec_kuchsnow_255.txt.gz
Snowfall_Accumulation
0.0 0.0 0.0 0.0 0.0 0.0 0.0 0.0 0.0 0.0 0.0 0.0 0.0 0.0 0.0 0.0 0.0 0.0 0.0 0.0 0.0 0.0 0.0 0.0 0.0 0.0 0.0 0.0 0.0 0.0 0.0 0.0 0.0 0.0 0.0 0.0 0.0 0.0 0.0 0.0 0.0 0.0 0.0 0.0 0.0 0.0 0.0
0.0 0.0 0.0 0.0 0.0 0.0 0.0 0.0 0.0 0.0 0.0 0.0 0.0 0.0 0.0 0.0 0.0 0.0 0.0 0.0 0.0 0.0 0.0 0.0 0.0 0.0 0.0 0.0 0.0 0.0 0.0 0.0 0.0 0.0 0.0 0.0 0.0 0.0 0.0 0.0 0.0 0.0 0.0 0.0 0.0 0.0 0.0
0.0 0.0 0.0 0.0 0.0 0.0 0.0 0.0 0.0 0.0 0.0 0.0 0.0 0.0 0.0 0.0 0.0 0.0 0.0 0.0 0.0 0.0 0.0 0.0 0.0 0.0 0.0 0.0 0.0 0.0 0.0 0.0 0.0 0.0 0.0 0.0 0.0 0.0 0.0 0.0 0.0 0.0 0.0 0.0 0.0 0.0 0.0
0.0 0.0 0.0 0.0 0.0 0.0 0.0 0.0 0.0 0.0 0.0 0.0 0.0 0.0 0.0 0.0 0.0 0.0 0.0 0.0 0.0 0.0 0.0 0.0 0.0 0.0 0.0 0.0 0.0 0.0 0.0 0.0 0.0 0.0 0.0 0.0 0.0 0.0 0.0 0.0 0.0 0.0 0.0 0.0 0.0 0.0 0.0
0.0 0.0 0.0 0.0 0.0 0.0 0.0 0.0 0.0 0.0 0.0 0.0 0.0 0.0 0.0 0.0 0.0 0.0 0.0 0.0 0.0 0.0 0.0 0.0 0.0 0.0 0.0 0.0 0.0 0.0 0.0 0.0 0.0 0.0 0.0 0.0 0.0 0.0 0.0 0.0 0.0 0.0 0.0 0.0 0.0 0.0 0.0
0.0 0.0 0.0 0.0 0.0 0.0 0.0 0.0 0.0 0.0 0.0 0.0 0.0 0.0 0.0 0.0 0.0 0.0 0.0 0.0 0.0 0.0 0.0 0.0 0.0 0.0 0.0 0.0 0.0 0.0 0.0 0.0 0.0 0.0 0.0 0.0 0.0 0.0 0.0 0.0 0.1 0.0 0.0 0.0 0.0 0.0 0.0
0.0 0.0 0.0 0.0 0.0 0.0 0.0 0.0 0.0 0.0 0.0 0.0 0.0 0.0 0.0 0.0 0.0 0.0 0.0 0.0 0.0 0.0 0.0 0.0 0.0 0.0 0.0 0.0 0.0 0.0 0.0 0.0 0.0 0.0 0.0 0.0 0.0 0.0 0.0 0.0 0.0 0.0 0.0 0.0 0.0 0.0 0.0
0.0 0.0 0.0 0.0 0.0 0.0 0.0 0.0 0.0 0.0 0.0 0.0 0.0 0.0 0.0 0.0 0.0 0.0 0.0 0.0 0.0 0.0 0.3 0.0 0.0 0.0 0.0 0.0 0.0 0.0 0.0 0.0 0.0 0.0 0.0 0.0 0.0 0.0 0.0 0.0 0.0 0.0 0.0 0.0 0.0 0.0 0.0
0.0 0.0 0.0 0.0 0.0 0.0 0.0 0.0 0.0 0.0 0.0 0.0 0.0 0.0 0.0 0.0 0.0 0.0 0.0 0.0 0.0 0.0 1.3 0.0 0.0 0.0 0.0 0.0 0.0 0.0 0.0 0.0 0.0 0.0 0.0 0.0 0.0 0.0 0.0 0.0 0.0 0.0 0.1 0.0 0.0 0.0 0.0
0.0 0.0 0.0 0.0 0.0 0.0 0.0 0.0 0.0 0.0 0.0 0.0 0.0 0.0 0.0 0.0 0.0 0.0 0.0 0.0 0.0 0.0 3.3 0.0 0.0 0.0 0.0 0.0 0.0 0.0 0.0 0.0 0.0 0.0 0.0 0.0 0.0 0.0 0.0 0.0 0.1 0.3 0.0 0.0 0.0 0.1 0.4
0.0 0.0 0.0 0.0 0.0 0.0 0.0 0.0 0.0 0.0 0.0 0.0 0.0 0.0 0.0 0.0 0.0 0.0 0.0 0.0 0.0 0.0 47.2 0.2 0.0 0.0 0.0 0.0 0.0 0.0 0.0 0.0 0.0 0.0 0.0 0.1 0.0 0.0 0.3 0.1 0.0 0.1 0.0 0.0 0.0 0.0 0.4
0.0 0.0 0.0 0.0 0.0 0.0 0.0 0.0 0.0 0.0 0.0 0.0 0.0 0.0 0.0 0.0 0.0 0.0 0.0 0.0 0.0 22.2 61.2 0.7 0.0 0.0 0.0 0.0 0.0 0.0 0.0 0.0 0.0 0.0 0.0 0.0 0.0 0.0 0.2 0.0 0.0 0.0 0.0 0.0 0.0 0.3 4.0
0.0 0.0 0.0 0.0 0.0 0.0 0.0 0.0 0.0 0.0 0.0 0.0 0.0 0.0 0.0 0.0 0.0 0.0 0.0 0.0 35.3 73.9 0.0 0.6 0.0 0.0 0.0 0.0 0.0 0.0 0.1 0.0 0.0 0.5 0.2 0.0 0.0 0.0 0.0 0.2 0.0 0.2 0.5 3.8 4.2 4.8 3.7
0.0 0.0 0.0 0.0 0.0 0.0 0.0 0.0 0.0 0.0 0.0 0.0 0.0 0.0 0.0 0.0 0.0 0.0 0.0 5.7 86.1 6.4 2.3 0.0 0.0 0.0 0.1 0.0 0.0 0.0 0.2 0.5 0.0 0.0 0.1 1.1 1.6 0.3 0.0 1.3 0.3 0.1 0.2 1.9 4.9 1.9 0.1
0.0 0.0 0.0 0.0 0.0 0.0 0.0 0.0 0.0 0.0 0.0 0.0 0.0 0.0 0.0 0.0 0.0 0.0 2.2 83.9 39.3 0.9 0.0 0.0 0.0 0.6 0.8 0.2 0.1 0.0 1.5 2.0 1.2 0.0 2.5 3.2 1.5 0.0 0.1 0.0 0.0 0.4 2.0 0.2 2.2 0.9 1.4
0.0 0.0 0.0 0.0 0.0 0.0 0.0 0.0 0.0 0.0 0.0 0.0 0.0 0.0 0.0 0.0 0.0 0.0 20.9 48.0 14.2 0.0 0.2 0.0 1.5 0.4 1.7 0.3 0.8 0.7 0.4 1.6 1.3 0.1 0.0 1.3 6.1 0.0 0.0 0.0 0.0 0.2 0.0 5.7 6.1 29.6 17.1
0.0 0.0 0.0 0.0 0.0 0.0 0.0 0.0 0.0 0.0 0.0 0.0 0.0 3.7 0.0 0.0 0.0 0.8 58.7 14.1 5.1 0.0 0.0 1.5 1.0 2.5 0.5 0.9 2.7 3.7 2.8 0.2 2.3 0.3 0.0 1.0 3.9 0.3 0.0 0.6 1.4 0.2 1.3 3.7 5.5 9.1 19.7
0.0 0.0 0.0 0.0 0.0 0.0 0.0 0.0 0.0 0.0 0.0 0.0 0.0 31.1 0.0 0.0 18.5 25.5 29.8 9.1 0.6 0.0 0.0 1.1 0.7 0.8 1.9 1.6 1.9 3.3 5.3 2.0 0.0 0.4 2.3 1.8 5.3 6.3 0.4 0.0 0.0 0.2 5.0 8.4 46.2 40.4 23.8
0.0 0.0 0.0 0.0 0.0 0.0 0.0 0.0 0.0 0.0 0.0 0.0 8.1 12.3 0.0 0.0 52.6 32.6 8.3 9.4 3.1 1.9 1.2 2.0 1.3 0.4 0.6 1.2 6.0 2.3 2.1 0.0 0.7 2.7 4.6 2.7 8.6 13.4 3.6 1.0 0.0 5.1 6.7 6.5 10.3 24.0 27.4
0.0 0.0 0.0 0.0 0.0 0.0 0.0 0.0 0.0 0.0 0.0 0.0 13.5 51.3 8.6 0.0 4.0 6.1 8.5 10.6 7.5 0.0 0.9 0.0 2.0 0.0 2.3 4.7 0.8 4.4 2.8 0.9 2.5 2.5 0.2 1.3 4.6 6.1 12.0 4.1 1.7 4.4 2.3 3.3 12.1 28.5 16.9
0.0 0.0 0.0 0.0 0.0 0.0 0.0 0.0 0.0 0.0 0.0 0.0 23.6 30.5 0.0 33.2 14.8 5.6 6.5 5.0 5.4 5.9 1.2 0.0 2.3 0.8 2.1 10.0 4.6 2.9 2.0 3.9 3.2 0.0 0.3 6.0 10.9 4.5 3.0 0.8 0.8 3.1 3.3 2.4 6.8 3.8 13.0
0.0 0.0 0.0 0.0 0.0 0.0 0.0 0.0 0.0 0.0 0.0 0.0 53.7 14.3 1.5 3.1 1.6 8.9 6.1 10.2 4.2 3.4 7.4 5.2 5.6 1.6 1.1 5.0 1.9 6.7 2.7 1.4 5.1 0.1 3.0 4.7 13.7 7.4 13.0 1.2 2.8 6.0 4.6 2.4 5.2 4.1 4.5
0.0 0.0 0.0 0.0 0.0 0.0 0.0 0.0 0.0 0.0 0.0 6.8 3.5 0.0 4.1 3.3 2.0 6.2 7.3 6.0 6.3 7.0 1.5 0.6 2.4 3.6 4.0 1.8 0.1 0.1 0.0 0.0 0.0 2.2 3.5 9.3 19.0 19.2 21.9 3.1 4.4 16.2 8.2 5.7 4.5 1.8 1.4
0.0 0.0 0.0 0.0 0.0 0.0 0.0 0.0 0.0 0.0 0.0 0.0 0.0 0.0 11.3 19.9 4.8 3.4 1.1 0.3 3.3 4.3 14.9 1.7 0.6 2.4 0.0 0.0 0.0 0.0 0.0 0.6 0.0 1.0 1.2 11.0 13.7 18.5 25.9 8.3 32.6 6.8 2.5 1.7 0.8 0.6 0.3
0.0 0.0 0.0 0.0 0.0 0.0 0.0 0.0 0.0 0.0 0.0 0.0 0.0 0.0 8.3 20.6 1.7 3.1 2.0 2.3 0.7 1.7 5.2 6.1 2.1 0.1 0.0 0.0 8.2 18.9 17.8 13.5 9.2 4.6 3.0 3.1 7.5 24.7 28.2 17.1 6.4 1.8 0.3 0.6 3.6 2.7 0.3
0.0 0.0 0.0 0.0 0.0 0.0 0.0 0.0 0.0 0.0 0.0 0.0 0.0 0.0 0.8 21.2 6.0 0.1 2.0 0.4 2.6 5.2 5.0 3.7 0.0 0.0 0.0 4.3 18.5 34.1 22.5 10.2 8.7 4.6 1.7 2.4 3.5 15.7 26.8 26.2 15.0 0.2 0.0 0.0 0.0 9.9 0.5
0.0 0.0 0.0 0.0 0.0 0.0 0.0 0.0 0.0 0.0 0.0 0.0 0.0 0.0 0.2 25.1 0.7 0.0 2.3 3.0 0.7 1.6 5.3 1.6 1.2 3.1 0.0 15.1 34.1 28.2 15.3 1.8 5.3 2.4 7.8 10.9 18.9 32.3 22.5 22.5 2.8 0.5 0.1 0.0 9.7 8.8 2.4
0.0 0.0 0.0 0.0 0.0 0.0 0.0 0.0 0.0 0.0 0.0 0.0 0.0 0.0 0.0 22.3 1.6 0.0 0.0 0.0 0.6 0.7 7.5 2.3 6.4 4.1 9.4 19.0 17.1 14.8 17.4 8.9 6.1 1.3 1.6 4.4 19.2 21.8 18.5 31.1 15.0 0.0 0.1 3.8 2.6 2.6 4.1
0.0 0.0 0.0 0.0 0.0 0.0 0.0 0.0 0.0 0.0 0.0 0.0 0.3 0.0 0.0 3.6 4.5 0.0 0.0 0.0 0.0 0.0 0.5 1.2 2.7 4.4 7.1 13.4 10.8 7.6 10.3 5.4 8.1 12.9 0.5 5.9 4.0 8.5 10.4 7.3 1.8 0.6 1.2 1.5 0.7 2.9 3.9